Location: McFarlands Corners
(41.4117°N, 81.3382°W)
Time: 16:34:12
(UTC+00:00)

Transit 2A - Pass Details

Date: 19 February 2026
Orbit: 590 x 954 km, 66.7° (Epoch: 7 March)

Event Time Altitude Azimuth Distance (km) Brightness Sun altitude
Rises 01:12:32 0° 337° (NNW) 3,588 9.9 -24.9°
Reaches altitude 10° 01:15:44 10° 351° (N) 2,600 8.9 -25.5°
Enters shadow 01:18:55 21° 21° (NNE) 1,894 7.9 -26.1°
